Location: Waco, TX
(31.5480°N, 97.1670°W)
Time: 09:04:21
(UTC-05:00)

ISS - Pass Details

Date: 18 October 2018
Orbit: 403 x 408 km, 51.6° (Epoch: 16 October)

Event Time Altitude Azimuth Distance (km) Brightness Sun altitude
Rises 16:23:25 0° 334° (NNW) 2,331 0.0 28.6°
Reaches altitude 10° 16:26:29 10° 5° (N) 1,468 -1.3 28.1°
Maximum altitude 16:28:00 13° 32° (NNE) 1,321 -1.6 27.8°
Drops below altitude 10° 16:29:31 10° 60° (ENE) 1,466 -1.5 27.5°
Sets 16:32:34 0° 91° (E) 2,323 -0.4 27.0°
